| time (UTC) | temp F | wind direction | speed MPH | gust MPH | rain 1hr in | rain 24hr in | rain mn in | humidity % | barometer mb |
| 20260901191541 | 80 | 0 | 0.0 | 1.0 | 0.00 | 0.70 | 0.70 | 84 | 1014.3 |
| 20260901190041 | 79 | 0 | 0.0 | 2.0 | 0.00 | 0.70 | 0.70 | 85 | 1014.3 |
| 20260901184546 | 78 | 0 | 0.0 | 0.0 | 0.00 | 0.70 | 0.70 | 88 | 1014.3 |
| 20260901183039 | 77 | 0 | 0.0 | 2.0 | 0.00 | 0.70 | 0.70 | 89 | 1014.4 |
| 20260901181541 | 76 | 107 | 0.0 | 2.0 | 0.01 | 0.70 | 0.70 | 92 | 1014.6 |
| 20260901180040 | 74 | 0 | 0.0 | 2.0 | 0.03 | 0.70 | 0.70 | 92 | 1014.5 |
| 20260901174539 | 74 | 149 | 1.0 | 4.0 | 0.03 | 0.70 | 0.70 | 93 | 1014.3 |
| 20260901173045 | 73 | 0 | 0.0 | 0.0 | 0.03 | 0.70 | 0.70 | 93 | 1014.7 |
| 20260901171601 | 72 | 0 | 0.0 | 4.0 | 0.01 | 0.68 | 0.68 | 93 | 1015.0 |
| 20260901170038 | 72 | 161 | 0.0 | 2.0 | 0.01 | 0.67 | 0.67 | 92 | 1014.9 |
| 20260901164544 | 72 | 115 | 0.0 | 2.0 | 0.02 | 0.67 | 0.67 | 92 | 1015.2 |
| 20260901163041 | 72 | 80 | 0.0 | 3.0 | 0.03 | 0.67 | 0.67 | 92 | 1015.3 |
| 20260901161541 | 72 | 110 | 2.0 | 4.0 | 0.05 | 0.67 | 0.67 | 92 | 1015.4 |
| 20260901160039 | 72 | 0 | 0.0 | 2.0 | 0.06 | 0.66 | 0.66 | 93 | 1015.6 |
| 20260901154534 | 71 | 215 | 1.0 | 2.0 | 0.05 | 0.65 | 0.65 | 92 | 1016.2 |
| 20260901153046 | 71 | 0 | 0.0 | 2.0 | 0.05 | 0.64 | 0.64 | 92 | 1016.3 |
| 20260901151542 | 71 | 205 | 1.0 | 3.0 | 0.04 | 0.62 | 0.62 | 92 | 1016.2 |
| 20260901150107 | 71 | 0 | 0.0 | 2.0 | 0.02 | 0.60 | 0.60 | 92 | 1016.1 |
| 20260901144542 | 71 | 0 | 0.0 | 0.0 | 0.02 | 0.60 | 0.60 | 92 | 1016.2 |
| 20260901143041 | 71 | 0 | 0.0 | 2.0 | 0.01 | 0.58 | 0.58 | 92 | 1016.3 |
| 20260901141542 | 71 | 78 | 0.0 | 2.0 | 0.00 | 0.58 | 0.58 | 92 | 1016.4 |
| 20260901140040 | 71 | 0 | 0.0 | 0.0 | 0.00 | 0.58 | 0.58 | 92 | 1016.2 |
| 20260901134553 | 71 | 0 | 0.0 | 0.0 | 0.00 | 0.58 | 0.58 | 92 | 1015.9 |
| 20260901133042 | 71 | 0 | 0.0 | 0.0 | 0.00 | 0.58 | 0.58 | 92 | 1016.0 |
| 20260901131539 | 70 | 0 | 0.0 | 0.0 | 0.00 | 0.58 | 0.58 | 92 | 1016.1 |
| 20260901130042 | 71 | 0 | 0.0 | 2.0 | 0.00 | 0.58 | 0.58 | 93 | 1016.1 |
| 20260901124545 | 70 | 72 | 0.0 | 2.0 | 0.00 | 0.58 | 0.58 | 93 | 1016.0 |
| 20260901123042 | 70 | 0 | 0.0 | 2.0 | 0.00 | 0.58 | 0.58 | 92 | 1016.2 |
| 20260901121543 | 70 | 0 | 0.0 | 2.0 | 0.00 | 0.58 | 0.58 | 92 | 1016.1 |
| 20260901120040 | 70 | 0 | 0.0 | 0.0 | 0.00 | 0.58 | 0.58 | 92 | 1016.3 |
| 20260901114552 | 69 | 212 | 0.0 | 2.0 | 0.00 | 0.58 | 0.58 | 92 | 1016.0 |
| 20260901113039 | 69 | 0 | 0.0 | 0.0 | 0.00 | 0.58 | 0.58 | 92 | 1016.1 |
| 20260901111544 | 69 | 0 | 0.0 | 0.0 | 0.00 | 0.58 | 0.58 | 92 | 1016.0 |
| 20260901110044 | 69 | 0 | 0.0 | 0.0 | 0.00 | 0.58 | 0.58 | 92 | 1016.1 |
| 20260901104540 | 69 | 0 | 0.0 | 0.0 | 0.00 | 0.58 | 0.58 | 92 | 1016.4 |
| 20260901103042 | 68 | 0 | 0.0 | 0.0 | 0.00 | 0.58 | 0.58 | 92 | 1016.4 |
| 20260901101545 | 68 | 0 | 0.0 | 0.0 | 0.00 | 0.58 | 0.58 | 92 | 1016.1 |
| 20260901100047 | 68 | 0 | 0.0 | 0.0 | 0.00 | 0.58 | 0.58 | 92 | 1015.8 |
| 20260901094543 | 68 | 0 | 0.0 | 0.0 | 0.00 | 0.58 | 0.58 | 92 | 1016.1 |
| 20260901093041 | 68 | 0 | 0.0 | 0.0 | 0.00 | 0.58 | 0.58 | 92 | 1016.1 |
| 20260901091548 | 68 | 0 | 0.0 | 0.0 | 0.00 | 0.58 | 0.58 | 92 | 1016.2 |
| 20260901090040 | 68 | 0 | 0.0 | 0.0 | 0.00 | 0.58 | 0.58 | 92 | 1016.4 |
| 20260901084542 | 68 | 0 | 0.0 | 0.0 | 0.00 | 0.58 | 0.58 | 92 | 1016.5 |
| 20260901083044 | 68 | 0 | 0.0 | 0.0 | 0.00 | 0.58 | 0.58 | 92 | 1016.4 |
| 20260901081544 | 68 | 0 | 0.0 | 2.0 | 0.00 | 0.58 | 0.58 | 92 | 1016.4 |
| 20260901080042 | 68 | 0 | 0.0 | 2.0 | 0.00 | 0.58 | 0.58 | 92 | 1016.5 |
| 20260901074548 | 68 | 0 | 0.0 | 2.0 | 0.00 | 0.58 | 0.58 | 91 | 1016.7 |
| 20260901073039 | 68 | 108 | 0.0 | 2.0 | 0.04 | 0.58 | 0.58 | 91 | 1016.8 |
| 20260901071537 | 68 | 0 | 0.0 | 0.0 | 0.16 | 0.58 | 0.58 | 91 | 1016.8 |
| 20260901070041 | 68 | 0 | 0.0 | 0.0 | 0.20 | 0.58 | 0.58 | 91 | 1016.6 |
| 20260901064542 | 67 | 0 | 0.0 | 0.0 | 0.20 | 0.58 | 0.58 | 91 | 1016.7 |
| 20260901063043 | 68 | 332 | 0.0 | 2.0 | 0.15 | 0.52 | 0.52 | 91 | 1017.3 |
| 20260901061538 | 68 | 116 | 0.0 | 2.0 | 0.13 | 0.42 | 0.42 | 91 | 1017.0 |
| 20260901060042 | 68 | 187 | 0.0 | 3.0 | 0.19 | 0.38 | 0.38 | 91 | 1017.3 |
| 20260901054540 | 68 | 0 | 0.0 | 5.0 | 0.26 | 0.38 | 0.38 | 91 | 1017.3 |
| 20260901053040 | 68 | 138 | 1.0 | 5.0 | 0.30 | 0.37 | 0.37 | 90 | 1017.1 |
| 20260901051539 | 68 | 121 | 0.0 | 2.0 | 0.29 | 0.29 | 0.29 | 90 | 1017.7 |
| 20260901050040 | 68 | 0 | 0.0 | 0.0 | 0.19 | 0.19 | 0.19 | 90 | 1017.9 |
| 20260901044541 | 69 | 0 | 0.0 | 2.0 | 0.12 | 0.12 | 0.12 | 89 | 1017.9 |
| 20260901043040 | 69 | 0 | 0.0 | 0.0 | 0.06 | 0.06 | 0.06 | 89 | 1017.9 |
| 20260901041544 | 70 | 0 | 0.0 | 0.0 | 0.00 | 0.00 | 0.00 | 88 | 1017.8 |
| 20260901040049 | 70 | 0 | 0.0 | 2.0 | 0.00 | 0.00 | 0.00 | 87 | 1017.7 |
| 20260901034538 | 70 | 0 | 0.0 | 2.0 | 0.00 | 0.00 | 0.00 | 86 | 1017.9 |
| 20260901033040 | 70 | 0 | 0.0 | 2.0 | 0.00 | 0.00 | 0.00 | 85 | 1017.9 |
| 20260901031540 | 70 | 0 | 0.0 | 3.0 | 0.00 | 0.00 | 0.00 | 85 | 1018.0 |
| 20260901030038 | 70 | 165 | 1.0 | 5.0 | 0.00 | 0.00 | 0.00 | 84 | 1018.2 |
| 20260901024603 | 70 | 0 | 0.0 | 3.0 | 0.00 | 0.00 | 0.00 | 84 | 1018.3 |
| 20260901023043 | 71 | 244 | 1.0 | 5.0 | 0.00 | 0.00 | 0.00 | 82 | 1018.5 |
| 20260901021540 | 71 | 189 | 2.0 | 6.0 | 0.00 | 0.00 | 0.00 | 82 | 1018.4 |
| 20260901020040 | 71 | 173 | 0.0 | 3.0 | 0.00 | 0.00 | 0.00 | 82 | 1018.4 |
| 20260901014540 | 71 | 223 | 0.0 | 2.0 | 0.00 | 0.04 | 0.00 | 81 | 1018.5 |
| 20260901013055 | 71 | 192 | 0.0 | 3.0 | 0.00 | 0.04 | 0.00 | 80 | 1018.7 |
| 20260901011542 | 71 | 141 | 0.0 | 4.0 | 0.00 | 0.04 | 0.00 | 80 | 1018.4 |
| 20260901010042 | 71 | 191 | 1.0 | 3.0 | 0.00 | 0.04 | 0.00 | 80 | 1018.2 |
| 20260901004544 | 71 | 0 | 0.0 | 0.0 | 0.00 | 0.04 | 0.00 | 79 | 1018.2 |
| 20260901003039 | 71 | 0 | 0.0 | 2.0 | 0.00 | 0.04 | 0.00 | 78 | 1018.1 |
| 20260901001540 | 71 | 0 | 0.0 | 2.0 | 0.00 | 0.04 | 0.00 | 78 | 1018.4 |
| 20260901000044 | 71 | 0 | 0.0 | 2.0 | 0.00 | 0.04 | 0.00 | 78 | 1018.1 |
| 20260831234546 | 72 | 0 | 0.0 | 2.0 | 0.00 | 0.04 | 0.00 | 77 | 1018.3 |
| 20260831233036 | 72 | 0 | 0.0 | 3.0 | 0.00 | 0.04 | 0.00 | 78 | 1018.4 |
| 20260831231536 | 72 | 0 | 0.0 | 2.0 | 0.00 | 0.04 | 0.00 | 77 | 1018.5 |
| 20260831230041 | 72 | 164 | 1.0 | 3.0 | 0.00 | 0.04 | 0.00 | 76 | 1018.4 |
| 20260831224539 | 73 | 133 | 1.0 | 5.0 | 0.00 | 0.04 | 0.00 | 75 | 1018.4 |
| 20260831223041 | 73 | 0 | 0.0 | 3.0 | 0.00 | 0.04 | 0.00 | 76 | 1018.3 |
| 20260831221546 | 73 | 99 | 0.0 | 4.0 | 0.00 | 0.04 | 0.00 | 76 | 1018.5 |
| 20260831220041 | 73 | 146 | 0.0 | 4.0 | 0.00 | 0.04 | 0.00 | 75 | 1018.7 |
| 20260831214540 | 73 | 113 | 1.0 | 3.0 | 0.00 | 0.04 | 0.00 | 76 | 1018.8 |
| 20260831213038 | 73 | 142 | 1.0 | 3.0 | 0.00 | 0.04 | 0.00 | 78 | 1018.8 |
| 20260831211540 | 72 | 178 | 1.0 | 2.0 | 0.00 | 0.04 | 0.00 | 78 | 1018.8 |
| 20260831210038 | 73 | 255 | 0.0 | 3.0 | 0.00 | 0.04 | 0.00 | 76 | 1019.1 |
| 20260831204540 | 73 | 0 | 1.0 | 4.0 | 0.00 | 0.04 | 0.00 | 73 | 1018.5 |
| 20260831203059 | 75 | 219 | 1.0 | 3.0 | 0.00 | 0.04 | 0.00 | 71 | 1018.4 |
| 20260831201535 | 76 | 142 | 0.0 | 2.0 | 0.00 | 0.04 | 0.00 | 68 | 1018.4 |
| 20260831200117 | 76 | 113 | 1.0 | 3.0 | 0.00 | 0.04 | 0.00 | 67 | 1018.7 |
| 20260831194551 | 77 | 103 | 0.0 | 2.0 | 0.00 | 0.04 | 0.00 | 64 | 1018.9 |
| 20260831193035 | 79 | 149 | 1.0 | 4.0 | 0.00 | 0.04 | 0.00 | 61 | 1019.1 |